When you browse on this site, cookies collect data to enhance your experience and personalize the content and advertising you see.
Visit our Privacy Policy to learn more. By continuing to use the site, you agree to this use of cookies and data.
  • In United Kingdom
  • List of Countries
  • For 7 days
  • Water Temperature
  • Weather Map
  • Weather Widgets
  • user-avatar
    Login

    Hourly Weather Codajas

    Today, 17 October, Thursday

    Time Temperature Precipitation Wind Pressure Humidity
    00:00 +24°C° 0 mm 0 mps 755 mmHg 90%
    01:00 +24°C° 0 mm 0 mps 755 mmHg 91%
    02:00 +23°C° 0 mm 0 mps 755 mmHg 92%
    03:00 +23°C° 0 mm 0 mps 755 mmHg 93%
    04:00 +23°C° 0 mm 0 mps 755 mmHg 93%
    05:00 +23°C° 0 mm 0 mps 755 mmHg 94%
    06:00 +25°C° 0 mm 0 mps 755 mmHg 87%
    07:00 +26°C° 0 mm 0 mps 756 mmHg 80%
    08:00 +28°C° 0 mm 0 mps 756 mmHg 73%
    09:00 +31°C° 0 mm 0 mps 756 mmHg 63%
    10:00 +35°C° 0 mm 1 mps 756 mmHg 53%
    11:00 +39°C° 0 mm 1 mps 756 mmHg 43%
    12:00 +37°C° 0 mm 1 mps 755 mmHg 44%
    13:00 +37°C° 0 mm 1 mps 754 mmHg 45%
    14:00 +36°C° 0 mm 1 mps 753 mmHg 46%
    15:00 +33°C° 0.1 mm 0 mps 753 mmHg 49%
    16:00 +33°C° 0.1 mm 0 mps 752 mmHg 52%
    17:00 +32°C° 0.1 mm 0 mps 752 mmHg 55%
    18:00 +31°C° 3.9 mm 1 mps 753 mmHg 69%
    19:00 +28°C° 3.9 mm 1 mps 754 mmHg 82%
    20:00 +25°C° 3.9 mm 2 mps 755 mmHg 96%
    21:00 +25°C° 0.1 mm 1 mps 755 mmHg 96%
    22:00 +25°C° 0.1 mm 1 mps 755 mmHg 96%
    23:00 +23°C° 0.1 mm 0 mps 755 mmHg 96%

    Tomorrow, 18 October, Friday

    Time Temperature Precipitation Wind Pressure Humidity
    00:00 +23°C° 0 mm 0 mps 754 mmHg 95%
    01:00 +23°C° 0 mm 0 mps 754 mmHg 95%
    02:00 +23°C° 0 mm 0 mps 754 mmHg 95%
    03:00 +23°C° 0 mm 0 mps 754 mmHg 95%
    04:00 +23°C° 0 mm 0 mps 754 mmHg 94%
    05:00 +23°C° 0 mm 0 mps 754 mmHg 94%
    06:00 +24°C° 0 mm 0 mps 755 mmHg 89%
    07:00 +25°C° 0 mm 0 mps 755 mmHg 85%
    08:00 +26°C° 0 mm 0 mps 756 mmHg 80%
    09:00 +29°C° 0 mm 0 mps 756 mmHg 68%
    10:00 +32°C° 0 mm 0 mps 756 mmHg 57%
    11:00 +35°C° 0 mm 0 mps 755 mmHg 45%
    12:00 +35°C° 0 mm 0 mps 754 mmHg 44%
    13:00 +37°C° 0 mm 1 mps 753 mmHg 42%
    14:00 +37°C° 0 mm 1 mps 752 mmHg 41%
    15:00 +37°C° 0 mm 1 mps 752 mmHg 44%
    16:00 +36°C° 0 mm 1 mps 751 mmHg 47%
    17:00 +35°C° 0 mm 1 mps 751 mmHg 50%
    18:00 +31°C° 0 mm 0 mps 752 mmHg 58%
    19:00 +29°C° 0 mm 0 mps 752 mmHg 65%
    20:00 +27°C° 0 mm 0 mps 752 mmHg 72%
    21:00 +26°C° 0.1 mm 0 mps 753 mmHg 75%
    22:00 +26°C° 0.1 mm 0 mps 753 mmHg 77%
    23:00 +25°C° 0.1 mm 0 mps 754 mmHg 80%

    Day after tomorrow, 19 October, Saturday

    Time Temperature Precipitation Wind Pressure Humidity
    00:00 +25°C° 0.8 mm 0 mps 754 mmHg 85%
    01:00 +24°C° 0.8 mm 0 mps 753 mmHg 90%
    02:00 +23°C° 0.8 mm 0 mps 753 mmHg 95%
    03:00 +23°C° 0.2 mm 0 mps 754 mmHg 95%
    04:00 +23°C° 0.2 mm 0 mps 754 mmHg 96%
    05:00 +23°C° 0.2 mm 0 mps 754 mmHg 97%
    06:00 +24°C° 0 mm 0 mps 754 mmHg 93%
    07:00 +27°C° 0 mm 1 mps 755 mmHg 89%
    08:00 +28°C° 0 mm 1 mps 756 mmHg 86%
    09:00 +31°C° 0.2 mm 1 mps 755 mmHg 75%
    10:00 +33°C° 0.2 mm 1 mps 755 mmHg 65%
    11:00 +35°C° 0.2 mm 1 mps 755 mmHg 55%
    12:00 +35°C° 1 mm 1 mps 754 mmHg 56%
    13:00 +35°C° 1 mm 1 mps 753 mmHg 57%
    14:00 +34°C° 1 mm 1 mps 752 mmHg 58%
    15:00 +33°C° 0.8 mm 1 mps 752 mmHg 64%
    16:00 +32°C° 0.8 mm 1 mps 752 mmHg 69%
    17:00 +31°C° 0.8 mm 1 mps 752 mmHg 75%
    18:00 +29°C° 0.6 mm 1 mps 752 mmHg 82%
    19:00 +27°C° 0.6 mm 1 mps 753 mmHg 88%
    20:00 +25°C° 0.6 mm 1 mps 753 mmHg 95%
    21:00 +23°C° 0.6 mm 0 mps 754 mmHg 95%
    22:00 +23°C° 0.6 mm 0 mps 754 mmHg 96%
    23:00 +23°C° 0.6 mm 0 mps 754 mmHg 96%

    20 October, Sunday

    Time Temperature Precipitation Wind Pressure Humidity
    00:00 +23°C° 0.1 mm 0 mps 754 mmHg 96%
    01:00 +23°C° 0.1 mm 0 mps 754 mmHg 97%
    02:00 +23°C° 0.1 mm 0 mps 753 mmHg 97%
    03:00 +25°C° 0 mm 1 mps 753 mmHg 97%
    04:00 +25°C° 0 mm 1 mps 753 mmHg 98%
    05:00 +25°C° 0 mm 1 mps 754 mmHg 98%
    06:00 +26°C° 0 mm 1 mps 754 mmHg 94%
    07:00 +27°C° 0 mm 1 mps 755 mmHg 90%
    08:00 +28°C° 0 mm 1 mps 755 mmHg 87%
    09:00 +31°C° 0 mm 1 mps 755 mmHg 73%
    10:00 +34°C° 0 mm 1 mps 755 mmHg 60%
    11:00 +37°C° 0 mm 1 mps 755 mmHg 46%
    12:00 +35°C° 0 mm 0 mps 754 mmHg 46%
    13:00 +35°C° 0 mm 0 mps 753 mmHg 46%
    14:00 +34°C° 0 mm 0 mps 752 mmHg 46%
    15:00 +33°C° 2.2 mm 1 mps 752 mmHg 60%
    16:00 +30°C° 2.2 mm 2 mps 751 mmHg 74%
    17:00 +28°C° 2.2 mm 3 mps 751 mmHg 88%
    18:00 +27°C° 3.7 mm 2 mps 752 mmHg 90%
    19:00 +26°C° 3.7 mm 2 mps 753 mmHg 93%
    20:00 +25°C° 3.7 mm 1 mps 753 mmHg 96%
    21:00 +25°C° 0.3 mm 1 mps 754 mmHg 95%
    22:00 +23°C° 0.3 mm 0 mps 754 mmHg 95%
    23:00 +23°C° 0.3 mm 0 mps 755 mmHg 95%

    21 October, Monday

    Time Temperature Precipitation Wind Pressure Humidity
    00:00 +23°C° 0.7 mm 0 mps 754 mmHg 96%
    01:00 +22°C° 0.7 mm 0 mps 754 mmHg 96%
    02:00 +24°C° 0.7 mm 1 mps 753 mmHg 97%
    03:00 +24°C° 0.3 mm 1 mps 753 mmHg 97%
    04:00 +24°C° 0.3 mm 1 mps 753 mmHg 97%
    05:00 +24°C° 0.3 mm 1 mps 754 mmHg 97%
    06:00 +25°C° 0 mm 1 mps 754 mmHg 94%
    07:00 +26°C° 0 mm 1 mps 755 mmHg 90%
    08:00 +27°C° 0 mm 1 mps 755 mmHg 86%
    09:00 +30°C° 0 mm 1 mps 755 mmHg 74%
    10:00 +33°C° 0 mm 1 mps 755 mmHg 62%
    11:00 +36°C° 0 mm 1 mps 754 mmHg 50%
    12:00 +36°C° 0 mm 1 mps 754 mmHg 49%
    13:00 +36°C° 0 mm 1 mps 753 mmHg 49%
    14:00 +34°C° 0 mm 0 mps 752 mmHg 48%
    15:00 +35°C° 0.1 mm 1 mps 752 mmHg 53%
    16:00 +34°C° 0.1 mm 1 mps 751 mmHg 58%
    17:00 +33°C° 0.1 mm 1 mps 751 mmHg 63%
    18:00 +31°C° 0.9 mm 1 mps 751 mmHg 72%
    19:00 +29°C° 0.9 mm 1 mps 752 mmHg 82%
    20:00 +27°C° 0.9 mm 1 mps 752 mmHg 91%
    21:00 +27°C° 0.1 mm 1 mps 753 mmHg 92%
    22:00 +24°C° 0.1 mm 0 mps 753 mmHg 93%
    23:00 +24°C° 0.1 mm 0 mps 753 mmHg 94%

    22 October, Tuesday

    Time Temperature Precipitation Wind Pressure Humidity
    00:00 +24°C° 0.7 mm 0 mps 753 mmHg 95%
    01:00 +23°C° 0.7 mm 0 mps 753 mmHg 96%
    02:00 +23°C° 0.7 mm 0 mps 753 mmHg 97%
    03:00 +23°C° 1.1 mm 0 mps 753 mmHg 97%
    04:00 +23°C° 1.1 mm 0 mps 753 mmHg 97%
    05:00 +23°C° 1.1 mm 0 mps 753 mmHg 98%
    06:00 +24°C° 0.2 mm 0 mps 754 mmHg 95%
    07:00 +25°C° 0.2 mm 0 mps 755 mmHg 93%
    08:00 +28°C° 0.2 mm 1 mps 755 mmHg 91%
    09:00 +30°C° 0.2 mm 1 mps 755 mmHg 78%
    10:00 +33°C° 0.1 mm 1 mps 755 mmHg 66%
    11:00 +35°C° 0.1 mm 1 mps 755 mmHg 53%
    12:00 +35°C° 0.8 mm 1 mps 754 mmHg 57%
    13:00 +34°C° 0.8 mm 1 mps 753 mmHg 60%
    14:00 +33°C° 0.8 mm 1 mps 752 mmHg 64%
    15:00 +32°C° 1.7 mm 1 mps 751 mmHg 73%
    16:00 +30°C° 1.7 mm 1 mps 751 mmHg 81%
    17:00 +29°C° 1.7 mm 1 mps 751 mmHg 90%
    18:00 +28°C° 0.1 mm 1 mps 751 mmHg 91%
    19:00 +25°C° 0.1 mm 0 mps 752 mmHg 92%
    20:00 +24°C° 0.1 mm 0 mps 752 mmHg 93%
    21:00 +24°C° 0.3 mm 0 mps 753 mmHg 94%
    22:00 +24°C° 0.3 mm 0 mps 753 mmHg 94%
    23:00 +24°C° 0.3 mm 0 mps 754 mmHg 95%
    Show more